DAMPE

Last updated on Sun Apr 12 2026 00:03:41 GMT+0000 (Coordinated Universal Time)

1 41173U 15078A 26101.48918443 .00001191 00000+0 42831-4 0 9991 2 41173 97.4587 106.6329 0010947 320.1625 39.8811 15.30619857574343
UTC large
Height (km)
Speed (km/s)
/
Latitude / Longitude
Inclination (degrees)
Orbital Period (minutes)
Azimuth
Elevation
Range (km)
Doppler Factor

Next 0 passes for location: London (51.5072 / 0.1276)

Sorry there are no passes over London.
DAMPE